User: anonymous   Login
Location: Unspecified
(0.0000°N, 0.0000°E)
Time: 19:46:17
(UTC+00:00)
Language:

Kosmos-2180 - Orbit

View from above orbital plane
View from above orbital plane
View from above satellite
View from above satellite

Ground track
Ground track

The orbit data is extracted from the following two-line orbital elements,

1 21875U 92008A   24112.96970706  .00000176  00000-0  17140-3 0  9996
2 21875  82.9243  84.1614 0037706   2.0304  70.9953 13.73852658612863
Epoch (UTC): 21 April 2024 23:16:22
Eccentricity: 0.0037706
inclination: 82.9243°
perigee height: 958 km
apogee height: 1013 km
right ascension of ascending node: 84.1614°
argument of perigee: 2.0304°
revolutions per day: 13.73852658
mean anomaly at epoch: 70.9953°
orbit number at epoch: 61286

The dashed part of the orbit path shows where the satellite is in the earth's shadow,  

DLR